Location: Austin
(30.3000°N, 97.7500°W)
Time: 01:25:57
(UTC-05:00)

Cosmos 2221 - Pass Details

Date: 15 May 2024
Orbit: 583 x 603 km, 82.5° (Epoch: 19 May)

Event Time Altitude Azimuth Distance (km) Brightness Sun altitude
Exits shadow 22:14:56 17° 50° (NE) 1,559 4.5 -22.2°
Drops below altitude 10° 22:16:16 10° 36° (NE) 1,947 5.1 -22.5°
Sets 22:18:49 0° 23° (NNE) 2,855 6.2 -22.9°
